Hourly Data Report for December 31, 2003

SHERBROOKE A
QUEBEC

45°26'00.000" N
71°41'00.000" W
241.40 m
7028124
71610
YSC

Download Data

Hourly Data (December 2003)
Hourly Data Report for December 31, 2003
TIME
LST
Temp Definition
°C
Dew Point Definition
°C
Rel Hum Definition
%
Precip. Amount Definition
mm

Wind Dir Definition
10's deg

Wind Spd Definition
km/h
Visibility Definition
km
Stn Press Definition
kPa
Hmdx Definition


Wind Chill Definition


Weather Definition


00:00 0.9 -3.6 72   28 37 15.0 98.11      
01:00 0.6 -4.0 71   28 32 15.0 98.22      
02:00 0.2 -4.6 70   28 28 15.0 98.36      
03:00 -0.3 -5.6 67   28 39 15.0 98.52   -8  
04:00 -1.0 -6.7 65   28 33 15.0 98.66   -8  
05:00 -1.9 -6.7 70   28 32 15.0 98.78   -9  
06:00 -2.8 -7.3 71   28 33 15.0 98.87   -10  
07:00 -3.9 -8.8 69   27 17 15.0 99.03   -10  
08:00 -5.0 -9.3 72   28 20 24.1 99.09   -12 Clear
09:00 -4.8 -9.4 70   27 17 24.1 99.24   -11 Clear
10:00 -4.4 -10.0 65   29 15 24.1 99.16   -10 Mainly Clear
11:00 -3.7 -10.5 59   28 17 24.1 99.10   -9 Mainly Clear
12:00 -2.8 -10.8 54   27 6 24.1 98.96   -5 Mostly Cloudy
13:00 -2.3 -10.4 54   23 7 24.1 98.78   -5 Mostly Cloudy
14:00 -2.0 -8.1 63   23 9 24.1 98.74   -5 Cloudy
15:00 -1.4 -7.6 63   18 9 24.1 98.63   -5 Mostly Cloudy
16:00 -2.3 -8.0 65   16 6 24.1 98.45   -5 Mainly Clear
17:00 -2.8 -7.7 69   11 7 24.1 98.25   -6 Mostly Cloudy
18:00 -2.5 -7.5 68   14 11 15.0 98.13   -7  
19:00 -3.0 -7.2 73   12 4 15.0 98.12   -5  
20:00 -2.4 -6.8 72   9 4 15.0 98.01   -4  
21:00 -2.7 -6.3 76   32 6 3.9 98.00   -5 Snow
22:00 -1.8 -4.1 84     0 3.2 97.93     Snow
23:00 -0.5 -2.2 88   28 26 1.3 97.98   -7 Snow

Notes on Data Quality.

Legend

  • E = Estimated
  • M = Missing
  • NA = Not Available*
  • [empty] = Indicates an unobserved value
Date modified: